Regional Weather Roundup
Issued by NWS

Home | Current Version | Previous Version | Graphics & Text | Print | Product List | Glossary On
Versions: 1 2 3 4 5 6 7 8 9 10 11 12 13 14 15 16 17 18 19 20 21 22 23 24 25 26 27 28 29 30 31 32 33 34 35 36 37 38 39 40 41 42 43 44 45 46 47 48 49 50
000
ASUS43 KIND 231509
RWRIN

WEATHER ROUNDUP FOR INDIANA
NATIONAL WEATHER SERVICE INDIANAPOLIS IN
1100 AM EDT WED JUL 23 2014

NOTE: "FAIR" INDICATES FEW OR NO CLOUDS BELOW 12,000 FEET WITH NO
SIGNIFICANT WEATHER AND/OR OBSTRUCTIONS TO VISIBILITY.

* - STATION DOES NOT REPORT WEATHER SUCH AS PRECIPITATION OR FOG.

+ - STATION NOT QUALITY CONTROLLED BY THE NATIONAL WEATHER SERVICE.
    USE DATA WITH CAUTION...ESPECIALLY DEWPOINT AND RELATIVE
    HUMIDITY OBSERVATIONS.

INZ001>003-010>013-019-020-231600-
NORTHWEST INDIANA

CITY           SKY/WX    TMP DP  RH WIND       PRES   REMARKS
GARY /AIRPORT/ PTSUNNY   68  59  73 N14G29    30.14R
KNOX *+        PTSUNNY   70  60  71 N14G20    30.07S
LA PORTE +     MOSUNNY   66  58  74 N20G31    30.10S
MICHIGAN CITY+ CLOUDY    66  55  68 N17G24    30.11S
MONTICELLO +   CLOUDY    70  64  83 N10       30.06S
RENSSELAER +   PTSUNNY   68  63  83 N8G18     30.09S
VALPARAISO     MOSUNNY   67  59  75 N12G20    30.10S

$$

LMZ046-743>745-231600-
SOUTHERN LAKE MICHIGAN

STATION/POSITION TIME  TEMP WIND        PRES
                       AIR  DIR/SP/G
                 (UTC) (F)  (DEG/KT/KT) (MB)
MICHIGAN CITY    1500   65  360/ 22/ 26   N/A

$$

INZ004-005-014>016-021>024-231600-
NORTH CENTRAL INDIANA

CITY           SKY/WX    TMP DP  RH WIND       PRES   REMARKS
GOSHEN         CLOUDY    66  62  87 N14       30.07R
LOGANSPORT +   CLOUDY    68  64  88 NW5       30.08R
PERU/GRISSOM   CLOUDY    71  71 100 VRB2      30.07R
ROCHESTER +    CLOUDY    70  63  78 N9        30.08R
SOUTH BEND     CLOUDY    67  58  72 N12       30.09S
WARSAW +       CLOUDY    64  63  94 N9        30.07R FOG

$$

INZ006>009-017-018-025>027-231600-
NORTHEAST INDIANA

CITY           SKY/WX    TMP DP  RH WIND       PRES   REMARKS
ANGOLA *+      CLOUDY    66  55  68 NE8       30.05R
AUBURN +       CLOUDY    70  64  83 NW16G23   30.04R
FORT WAYNE     CLOUDY    72  67  84 NW3       30.05R
HUNTINGTON +   CLOUDY    71  68  91 CALM      30.04R

$$

INZ028-029-035-036-043>045-051>053-231600-
WEST CENTRAL INDIANA

CITY           SKY/WX    TMP DP  RH WIND       PRES   REMARKS
GREENCASTLE +  CLOUDY    72  70  94 CALM      30.05R FOG
LAFAYETTE      CLOUDY    70  64  81 N7        30.07R
TERRE HAUTE    CLOUDY    74  70  87 NW8       30.03S FOG

$$

INZ030>032-037>040-046>048-054>057-064-065-231600-
CENTRAL INDIANA

CITY           SKY/WX    TMP DP  RH WIND       PRES   REMARKS
ANDERSON       CLOUDY    72  68  88 CALM      30.09R
CP ATTERBURY + TSTM      72  68  88 NE3       30.10R
COLUMBUS       LGT RAIN  72  72 100 N8        30.09R FOG
GREENWOOD *+   CLOUDY    70  68  94 SE6       30.08
INDIANAPOLIS   TSTM      69  65  86 CALM      30.05F
-EAGLE CREEK   CLOUDY    70  67  90 NE5       30.05F
KOKOMO *+      CLOUDY    70  70 100 CALM      30.07R
MARION +       CLOUDY    69  68  96 W5        30.08R FOG
MT COMFORT *+  CLOUDY    68 N/A N/A SE3       30.08S
SHELBYVILLE    TSTM      67  61  81 S14G28    30.08R
ZIONSVILLE +   RAIN      70  67  88 CALM      30.07F

$$

INZ033-034-041-042-049-050-058-059-231600-
EAST CENTRAL INDIANA

CITY           SKY/WX    TMP DP  RH WIND       PRES   REMARKS
MUNCIE         CLOUDY    71  67  87 W8        30.07R

$$

INZ060-061-067>069-081>083-085>088-231600-
SOUTHWEST INDIANA

CITY           SKY/WX    TMP DP  RH WIND       PRES   REMARKS
EVANSVILLE     LGT RAIN  72  66  81 N12       30.07R
HUNTINGBURG *+ CLOUDY    73  70  88 CALM      30.09R
WASHINGTON +   CLOUDY    70  70  99 S3        30.02F

$$

INZ062-063-066-070>080-084-089>092-231600-
SOUTH CENTRAL AND SOUTHEAST INDIANA

CITY           SKY/WX    TMP DP  RH WIND       PRES   REMARKS
BLOOMINGTON    CLOUDY    73  68  84 W5        30.05R

$$



USA.gov is the U.S. government's official web portal to all federal, state and local government web resources and services.